Nuiqsut, AK

10:44 AM AKST on February 20, 2018 (GMT -0900)
Nuiqsut

Weather History for PAQT - February, 2013

Change the Weather History Date:

Friday, February 8, 2013

  Actual Average (PAKU) Record (PAKU)
Temperature  
Mean Temperature -35 °F -  
Max Temperature -29 °F -12 °F 26 °F (1989)
Min Temperature -41 °F -19 °F -49 °F (2004)
Degree Days  
Heating Degree Days 100    
Moisture  
Dew Point -35 °F    
Average Humidity 73    
Maximum Humidity 73    
Minimum Humidity 73    
Precipitation  
Precipitation 0.00 in - - ()
Sea Level Pressure  
Sea Level Pressure 29.89 in    
Wind  
Wind Speed 3 mph (NNE)    
Max Wind Speed 7 mph    
Max Gust Speed -    
Visibility 4 miles    
Events      
Averages and records for this station are not official NWS values.
T = Trace of Precipitation, MM = Missing Value Source: NWS Daily Summary

Daily Weather History Graph

Daily Weather History Graph

Search for Another Location

Airport or City:

Trip Planner

Search our weather history database for the weather conditions in past years. The results will help you decide how hot, cold, wet, or windy it might be!

Date:

Astronomy

Feb. 08, 2013 Rise Set
Actual Time 10:11 AM AKST 4:25 PM AKST
Civil Twilight 8:55 AM AKST 5:42 PM AKST
Nautical Twilight 7:40 AM AKST 6:57 PM AKST
Astronomical Twilight 6:29 AM AKST 8:08 PM AKST
Moon 9:18 AM AKST (2/8) 2:49 PM AKST (2/8)
Length of Visible Light 8h 46m
Length of Day
6h 14m
Waning Crescent, 3% of the Moon is Illuminated
Feb 8
Waning Crescent
Feb 9
New
Feb 17
First Quarter
Feb 25
Full
Mar 4
Last Quarter

Hourly Weather History & Observations

Time (AKST) Temp. Windchill Dew Point Humidity Pressure Visibility Wind Dir Wind Speed Gust Speed Precip Events Conditions
12:00 AM -40.0 °F -56.6 °F - N/A% 29.80 in 1.0 mi NNE 4.6 mph - N/A   Mist
12:09 AM -38.2 °F - - N/A% 29.80 in 1.2 mi Calm Calm - N/A   Clear
12:34 AM -38.2 °F -58.9 °F - N/A% 29.81 in 1.5 mi NE 6.9 mph - N/A   Partly Cloudy
12:40 AM -38.2 °F -56.9 °F - N/A% 29.81 in 3.0 mi ENE 5.8 mph - N/A   Clear
12:53 AM -40.0 °F -56.6 °F - N/A% 29.82 in 10.0 mi ENE 4.6 mph - N/A   Clear
1:07 AM -38.2 °F -51.5 °F - N/A% 29.81 in 1.8 mi NE 3.5 mph - N/A   Partly Cloudy
1:23 AM -40.0 °F -53.5 °F - N/A% 29.81 in 1.0 mi NNE 3.5 mph - N/A   Mostly Cloudy
1:30 AM -40.0 °F - - N/A% 29.81 in 1.2 mi Calm Calm - N/A   Mostly Cloudy
1:40 AM -40.0 °F -53.5 °F - N/A% 29.81 in 3.0 mi NE 3.5 mph - N/A   Mostly Cloudy
1:50 AM -40.0 °F -53.5 °F - N/A% 29.82 in 2.5 mi NE 3.5 mph - N/A   Scattered Clouds
1:53 AM -40.0 °F - - N/A% 29.82 in 2.0 mi Calm Calm - N/A   Partly Cloudy
2:02 AM -40.0 °F -53.5 °F - N/A% 29.82 in 1.8 mi NNE 3.5 mph - N/A   Clear
2:15 AM -41.8 °F - - N/A% 29.82 in 2.0 mi Calm Calm - N/A   Clear
2:34 AM -40.0 °F - - N/A% 29.82 in 1.5 mi Calm Calm - N/A   Clear
3:38 AM -38.2 °F -51.5 °F - N/A% 29.82 in 4.0 mi NE 3.5 mph - N/A   Haze
3:50 AM -38.2 °F - - N/A% 29.82 in 1.8 mi Calm Calm - N/A   Mostly Cloudy
3:53 AM -38.9 °F - - N/A% 29.83 in 1.2 mi Calm Calm - N/A   Overcast
4:53 AM -38.9 °F -52.3 °F - N/A% 29.83 in 1.5 mi NNE 3.5 mph - N/A   Partly Cloudy
5:17 AM -38.2 °F -54.5 °F - N/A% 29.83 in 3.0 mi NE 4.6 mph - N/A   Clear
5:25 AM -38.2 °F - - N/A% 29.84 in 1.8 mi Calm Calm - N/A   Clear
5:48 AM -40.0 °F -53.5 °F - N/A% 29.84 in 1.2 mi NE 3.5 mph - N/A   Partly Cloudy
5:53 AM -40.0 °F -59.0 °F - N/A% 29.84 in 1.0 mi NE 5.8 mph - N/A   Mist
6:04 AM -40.0 °F -53.5 °F - N/A% 29.84 in 1.2 mi NE 3.5 mph - N/A   Partly Cloudy
6:31 AM -38.2 °F - - N/A% 29.84 in 3.0 mi Calm Calm - N/A   Mostly Cloudy
6:36 AM -38.2 °F - - N/A% 29.84 in 1.8 mi Calm Calm - N/A   Mostly Cloudy
7:21 AM -38.2 °F -51.5 °F - N/A% 29.85 in 2.0 mi West 3.5 mph - N/A   Overcast
7:32 AM -38.2 °F - - N/A% 29.85 in 1.5 mi Calm Calm - N/A   Overcast
7:53 AM -36.9 °F -57.4 °F - N/A% 29.86 in 2.0 mi NNE 6.9 mph - N/A   Overcast
8:23 AM -36.4 °F - - N/A% 29.87 in 3.0 mi Calm Calm - N/A   Overcast
8:38 AM -36.4 °F -49.4 °F - N/A% 29.87 in 2.0 mi NNE 3.5 mph - N/A   Overcast
8:53 AM -36.0 °F - - N/A% 29.88 in 3.0 mi Calm Calm - N/A   Overcast
9:00 AM -36.4 °F - - N/A% 29.88 in 2.5 mi Calm Calm - N/A   Overcast
9:15 AM -36.4 °F - - N/A% 29.88 in 4.0 mi Calm Calm - N/A   Haze
9:29 AM -36.4 °F - - N/A% 29.89 in 2.0 mi Calm Calm - N/A   Overcast
9:46 AM -34.6 °F -50.3 °F - N/A% 29.89 in 5.0 mi North 4.6 mph - N/A   Haze
9:53 AM -35.0 °F - - N/A% 29.89 in 7.0 mi Calm Calm - N/A   Overcast
10:53 AM -33.0 °F -48.4 °F - N/A% 29.90 in 10.0 mi North 4.6 mph - N/A   Overcast
11:53 AM -33.0 °F - - N/A% 29.93 in 10.0 mi Calm Calm - N/A   Overcast
12:50 PM -31.0 °F - - N/A% 29.94 in 1.8 mi Calm Calm - N/A   Overcast
12:53 PM -31.0 °F - - N/A% 29.95 in 3.0 mi Calm Calm - N/A   Overcast
1:53 PM -29.9 °F -42.0 °F - N/A% 29.96 in 10.0 mi NNW 3.5 mph - N/A   Overcast
2:53 PM -29.9 °F - - N/A% 29.98 in 10.0 mi Calm Calm - N/A   Overcast
3:53 PM -29.9 °F -42.0 °F - N/A% 29.99 in 10.0 mi North 3.5 mph - N/A   Overcast
4:53 PM -31.0 °F -48.4 °F - N/A% 30.00 in 10.0 mi North 5.8 mph - N/A   Unknown
5:53 PM -31.0 °F - - N/A% 30.01 in 9.0 mi Calm Calm - N/A   Mostly Cloudy
6:53 PM -29.9 °F - - N/A% 30.04 in 10.0 mi Calm Calm - N/A   Overcast
7:53 PM -29.9 °F - - N/A% 30.04 in 10.0 mi Calm Calm - N/A   Overcast
8:53 PM -29.9 °F - - N/A% 30.05 in 10.0 mi Calm Calm - N/A   Overcast
9:53 PM -29.9 °F - - N/A% 30.06 in 10.0 mi Calm Calm - N/A   Overcast
10:53 PM -29.0 °F -41.0 °F -35.0 °F 73% 30.07 in 9.0 mi North 3.5 mph - N/A   Overcast
11:53 PM -29.0 °F -41.0 °F -35.0 °F 73% 30.08 in 10.0 mi North 3.5 mph - N/A   Overcast